User: anonymous   Login
Location: Ariel
(45.9570°N, 122.5700°W)
Time: 07:49:12
(UTC-08:00)
Language:

NOAA 15 - Orbit

View from above orbital plane
View from above orbital plane
View from above satellite
View from above satellite

Ground track
Ground track

The orbit data is extracted from the following two-line orbital elements,

1 25338U 98030A   19321.82446699 +.00000013 +00000-0 +24165-4 0  9991
2 25338 098.7371 342.7474 0010866 155.9981 204.1707 14.25939532118675
Epoch (UTC): 17 November 2019 19:47:13
Eccentricity: 0.0010866
inclination: 98.7371°
perigee height: 797 km
apogee height: 813 km
right ascension of ascending node: 342.7474°
argument of perigee: 155.9981°
revolutions per day: 14.25939532
mean anomaly at epoch: 204.1707°
orbit number at epoch: 11867

The dashed part of the orbit path shows where the satellite is in the earth's shadow,  

DLR